Meteo pe oră la Dabrowno

Astăzi, 11 Aprilie, Duminică

Timp Temperatura Precipitaţii Vânt Presiune Umiditate
00:00 +5°C° 0 mm 2 m/s 748 mmHg 95%
01:00 +5°C° 0 mm 2 m/s 748 mmHg 96%
02:00 +5°C° 0 mm 2 m/s 748 mmHg 96%
03:00 +5°C° 0 mm 2 m/s 748 mmHg 96%
04:00 +5°C° 0 mm 2 m/s 748 mmHg 97%
05:00 +6°C° 0 mm 2 m/s 748 mmHg 94%
06:00 +7°C° 0 mm 2 m/s 748 mmHg 92%
07:00 +7°C° 0 mm 3 m/s 748 mmHg 89%
08:00 +9°C° 0 mm 3 m/s 747 mmHg 81%
09:00 +12°C° 0 mm 4 m/s 747 mmHg 73%
10:00 +14°C° 0 mm 5 m/s 747 mmHg 65%
11:00 +15°C° 0 mm 6 m/s 747 mmHg 59%
12:00 +16°C° 0 mm 6 m/s 746 mmHg 53%
13:00 +17°C° 0 mm 7 m/s 746 mmHg 48%
14:00 +17°C° 0 mm 6 m/s 746 mmHg 49%
15:00 +16°C° 0 mm 6 m/s 746 mmHg 51%
16:00 +16°C° 0 mm 5 m/s 745 mmHg 53%
17:00 +15°C° 0 mm 5 m/s 745 mmHg 58%
18:00 +13°C° 0 mm 4 m/s 746 mmHg 63%
19:00 +12°C° 0 mm 3 m/s 746 mmHg 68%
20:00 +12°C° 0 mm 4 m/s 746 mmHg 68%
21:00 +12°C° 0 mm 4 m/s 746 mmHg 68%
22:00 +12°C° 0 mm 4 m/s 746 mmHg 69%
23:00 +11°C° 0 mm 4 m/s 746 mmHg 71%

Mâine, 12 Aprilie, Luni

Timp Temperatura Precipitaţii Vânt Presiune Umiditate
00:00 +11°C° 0 mm 4 m/s 746 mmHg 74%
01:00 +10°C° 0 mm 5 m/s 746 mmHg 76%
02:00 +9°C° 0 mm 5 m/s 746 mmHg 79%
03:00 +9°C° 0 mm 5 m/s 746 mmHg 81%
04:00 +9°C° 0 mm 5 m/s 746 mmHg 83%
05:00 +10°C° 0 mm 4 m/s 746 mmHg 83%
06:00 +10°C° 0 mm 4 m/s 746 mmHg 82%
07:00 +11°C° 0 mm 4 m/s 746 mmHg 82%
08:00 +12°C° 0 mm 4 m/s 746 mmHg 75%
09:00 +13°C° 0 mm 4 m/s 747 mmHg 69%
10:00 +14°C° 0 mm 4 m/s 747 mmHg 62%
11:00 +13°C° 0.1 mm 4 m/s 747 mmHg 65%
12:00 +13°C° 0.1 mm 4 m/s 747 mmHg 68%
13:00 +12°C° 0.1 mm 4 m/s 747 mmHg 71%
14:00 +9°C° 0.3 mm 5 m/s 747 mmHg 77%
15:00 +6°C° 0.3 mm 5 m/s 748 mmHg 83%
16:00 +3°C° 0.3 mm 6 m/s 748 mmHg 89%
17:00 +2°C° 0.6 mm 6 m/s 749 mmHg 90%
18:00 +1°C° 0.6 mm 6 m/s 749 mmHg 92%
19:00 +1°C° 0.6 mm 6 m/s 750 mmHg 94%
20:00 +1°C° 0.2 mm 5 m/s 750 mmHg 94%
21:00 +1°C° 0.2 mm 5 m/s 750 mmHg 94%
22:00 0°C° 0.2 mm 4 m/s 751 mmHg 93%
23:00 0°C° 0 mm 4 m/s 751 mmHg 91%

Poimâine, 13 Aprilie, Marţi

Timp Temperatura Precipitaţii Vânt Presiune Umiditate
00:00 +1°C° 0 mm 4 m/s 751 mmHg 89%
01:00 +2°C° 0 mm 3 m/s 751 mmHg 87%
02:00 +1°C° 0 mm 3 m/s 751 mmHg 87%
03:00 +1°C° 0 mm 3 m/s 752 mmHg 87%
04:00 +2°C° 0 mm 2 m/s 752 mmHg 88%
05:00 +1°C° 0 mm 3 m/s 752 mmHg 83%
06:00 +2°C° 0 mm 3 m/s 752 mmHg 79%
07:00 +2°C° 0 mm 3 m/s 753 mmHg 75%
08:00 +4°C° 0 mm 3 m/s 753 mmHg 67%
09:00 +5°C° 0 mm 3 m/s 753 mmHg 58%
10:00 +7°C° 0 mm 3 m/s 753 mmHg 50%
11:00 +7°C° 0 mm 3 m/s 753 mmHg 48%
12:00 +8°C° 0 mm 3 m/s 753 mmHg 45%
13:00 +8°C° 0 mm 3 m/s 753 mmHg 43%
14:00 +8°C° 0 mm 3 m/s 753 mmHg 43%
15:00 +8°C° 0 mm 3 m/s 752 mmHg 43%
16:00 +7°C° 0 mm 4 m/s 752 mmHg 43%
17:00 +7°C° 0 mm 3 m/s 752 mmHg 47%
18:00 +5°C° 0 mm 3 m/s 752 mmHg 50%
19:00 +4°C° 0 mm 3 m/s 753 mmHg 54%
20:00 +4°C° 0 mm 3 m/s 753 mmHg 58%
21:00 +3°C° 0 mm 3 m/s 753 mmHg 63%
22:00 +4°C° 0 mm 2 m/s 753 mmHg 67%
23:00 +3°C° 0 mm 2 m/s 753 mmHg 69%

14 Aprilie, Miercuri

Timp Temperatura Precipitaţii Vânt Presiune Umiditate
00:00 +3°C° 0 mm 2 m/s 752 mmHg 71%
01:00 +3°C° 0 mm 2 m/s 752 mmHg 73%
02:00 +3°C° 0 mm 2 m/s 752 mmHg 76%
03:00 +3°C° 0 mm 2 m/s 752 mmHg 79%
04:00 +2°C° 0 mm 2 m/s 752 mmHg 82%
05:00 +2°C° 0 mm 3 m/s 752 mmHg 80%
06:00 +2°C° 0 mm 3 m/s 752 mmHg 79%
07:00 +3°C° 0 mm 4 m/s 752 mmHg 77%
08:00 +3°C° 0 mm 4 m/s 752 mmHg 71%
09:00 +4°C° 0 mm 4 m/s 752 mmHg 66%
10:00 +5°C° 0 mm 4 m/s 752 mmHg 60%
11:00 +5°C° 0 mm 5 m/s 751 mmHg 56%
12:00 +6°C° 0 mm 5 m/s 751 mmHg 53%
13:00 +5°C° 0 mm 6 m/s 751 mmHg 49%
14:00 +5°C° 0 mm 6 m/s 751 mmHg 52%
15:00 +5°C° 0 mm 6 m/s 751 mmHg 56%
16:00 +5°C° 0 mm 6 m/s 750 mmHg 59%
17:00 +4°C° 0 mm 6 m/s 751 mmHg 62%
18:00 +3°C° 0 mm 6 m/s 751 mmHg 66%
19:00 +2°C° 0 mm 6 m/s 751 mmHg 70%
20:00 +1°C° 0 mm 6 m/s 751 mmHg 73%
21:00 +1°C° 0 mm 5 m/s 751 mmHg 75%
22:00 +1°C° 0 mm 5 m/s 751 mmHg 78%
23:00 +1°C° 0 mm 5 m/s 750 mmHg 78%

15 Aprilie, Joi

Timp Temperatura Precipitaţii Vânt Presiune Umiditate
00:00 +1°C° 0 mm 5 m/s 750 mmHg 77%
01:00 +1°C° 0 mm 6 m/s 750 mmHg 77%
02:00 -1°C° 0 mm 6 m/s 750 mmHg 81%
03:00 -1°C° 0 mm 6 m/s 750 mmHg 85%
04:00 -2°C° 0 mm 6 m/s 750 mmHg 89%
05:00 -1°C° 0.1 mm 6 m/s 750 mmHg 89%
06:00 -1°C° 0.1 mm 6 m/s 750 mmHg 90%
07:00 -1°C° 0.1 mm 6 m/s 750 mmHg 91%
08:00 -1°C° 0.1 mm 6 m/s 750 mmHg 90%
09:00 -1°C° 0.1 mm 6 m/s 751 mmHg 89%
10:00 -1°C° 0.1 mm 6 m/s 751 mmHg 88%
11:00 +1°C° 0 mm 6 m/s 751 mmHg 86%
12:00 +2°C° 0 mm 6 m/s 751 mmHg 84%
13:00 +3°C° 0 mm 6 m/s 751 mmHg 81%
14:00 +3°C° 0 mm 6 m/s 751 mmHg 81%
15:00 +3°C° 0 mm 5 m/s 751 mmHg 80%
16:00 +3°C° 0 mm 5 m/s 752 mmHg 80%
17:00 +4°C° 0 mm 4 m/s 752 mmHg 79%
18:00 +4°C° 0 mm 4 m/s 752 mmHg 77%
19:00 +4°C° 0 mm 3 m/s 752 mmHg 76%
20:00 +3°C° 0 mm 3 m/s 752 mmHg 75%
21:00 +3°C° 0 mm 4 m/s 752 mmHg 75%
22:00 +3°C° 0 mm 4 m/s 752 mmHg 75%
23:00 +1°C° 0 mm 4 m/s 752 mmHg 76%

16 Aprilie, Vineri

Timp Temperatura Precipitaţii Vânt Presiune Umiditate
00:00 +1°C° 0 mm 4 m/s 752 mmHg 78%
01:00 +1°C° 0 mm 3 m/s 752 mmHg 80%
02:00 0°C° 0 mm 4 m/s 752 mmHg 82%
03:00 0°C° 0 mm 4 m/s 752 mmHg 84%
04:00 0°C° 0 mm 4 m/s 752 mmHg 87%
05:00 0°C° 0 mm 5 m/s 752 mmHg 87%
06:00 0°C° 0 mm 5 m/s 752 mmHg 87%
07:00 +1°C° 0 mm 5 m/s 752 mmHg 87%
08:00 0°C° 0.1 mm 5 m/s 752 mmHg 89%
09:00 0°C° 0.1 mm 5 m/s 753 mmHg 92%
10:00 0°C° 0.1 mm 4 m/s 753 mmHg 95%
11:00 +1°C° 0.2 mm 4 m/s 753 mmHg 93%
12:00 +1°C° 0.2 mm 4 m/s 753 mmHg 92%
13:00 +1°C° 0.2 mm 4 m/s 753 mmHg 91%
14:00 +1°C° 0.4 mm 4 m/s 754 mmHg 92%
15:00 +3°C° 0.4 mm 4 m/s 754 mmHg 92%
16:00 +3°C° 0.4 mm 4 m/s 754 mmHg 93%
17:00 +3°C° 0.1 mm 4 m/s 754 mmHg 93%
18:00 +3°C° 0.1 mm 4 m/s 755 mmHg 94%
19:00 +3°C° 0.1 mm 3 m/s 755 mmHg 94%
20:00 +4°C° 0 mm 4 m/s 755 mmHg 94%
21:00 +4°C° 0 mm 4 m/s 755 mmHg 93%
22:00 +4°C° 0 mm 4 m/s 756 mmHg 93%
23:00 +4°C° 0 mm 4 m/s 756 mmHg 92%
Arată mai mult

Formular de consimțământ

Meteoprog și furnizorii noștri de servicii pot stoca și accesa date personale, precum cookies, identificatori de dispozitiv sau alte tehnologii similare pe dispozitivul dumneavoastră și procesa astfel de date pentru a personaliza conținutul și reclamele, dar și pentru a oferi caracteristici de social media și pentru a analiza traficul.

  • Stocarea și/sau accesarea informațiilor pe dispozitivul dumneavoastră

    Cookies, identificatori de dispozitiv sau alte informații pot fi stocate sau accesate pe dispozitiv în scopurile indicate mai sus.

  • Reclame și conținut personalizat, evaluarea reclamelor și a conținutului, informații despre audiențe și dezvoltarea produselor

    Reclamele și conținutul pot fi personalizate pe baza unui profil. Pot fi adăugate date suplimentare pentru a personaliza mai bine reclamele și conținutul. Performanța reclamelor și conținutului poate fi măsurată. Pot fi obținute informații despre utilizatorii care au văzut reclamele și conținutul. Aceste date pot fi utilizate pentru a dezvolta sau îmbunătăți experiența utilizatorilor, sistemele și software-ul.

Dând clic pe ‘Sunt de acord’, permiteți utilizarea cookie-urilor menționate, a identificatorilor de dispozitiv, balizelor web sau altor tehnologii similare. Setările pot fi modificate din browser-ul dispozitivului dumneavoastră.

În anumite scopuri, interesele legitime pot prima asupra consimțământului. Puteți citi mai multe informații în acest sens în Politica privind Confidențialitatea Datelor și Cookie.